Theta_e
317 316 316 315 314 313 312 312 311 310 310 309 308 308 308 308 308 308 307 306 305 305 304 304 304 304 304 304 303 303 303 303 303 303 303 303 303 303 303 302 302 302 302 302 302 302 302 302 302 302 302 302 302 302 302 302 302 302 302 302 302 302 302 302 301 301 301 301 301 301 301 302 301 301 301 300 300 300 300 300 300 300 300 300 300 300
316 316 315 314 313 312 311 311 310 310 309 308 308 308 308 308 308 307 306 305 305 304 304 304 304 303 303 303 303 303 303 303 302 302 302 302 302 302 302 302 302 302 302 302 301 301 301 301 301 301 301 301 301 301 301 301 301 301 301 301 301 301 301 300 300 300 300 300 300 300 300 300 299 299 299 299 299 299 299 300 300 299 299 299 300 300
316 315 314 313 312 311 310 310 309 309 308 308 308 308 308 307 307 306 305 305 304 304 304 304 303 303 303 303 303 303 302 302 302 302 302 301 301 301 301 301 301 300 300 300 300 300 300 299 299 299 299 299 299 299 299 299 299 299 298 298 298 297 297 297 297 297 297 297 297 297 296 296 296 296 297 297 297 298 298 299 299 299 299 299 299 299
316 315 314 313 311 310 310 309 309 308 308 308 308 307 307 306 306 305 305 304 304 304 303 303 303 303 302 302 302 302 302 302 301 301 301 301 300 300 300 300 299 299 299 298 298 297 297 297 297 296 296 296 296 296 295 295 295 295 295 294 294 293 293 293 293 293 293 293 293 293 293 293 293 294 294 294 295 295 296 297 298 298 298 298 298 298
315 314 313 312 310 309 309 308 308 308 308 308 307 307 306 305 305 304 304 304 304 303 303 303 303 302 302 302 302 301 301 301 301 300 300 300 299 299 298 298 297 297 296 296 295 295 295 294 294 293 293 293 293 292 292 292 292 292 291 291 291 290 290 290 290 290 290 290 290 290 290 290 291 291 291 292 292 293 293 294 295 296 297 297 297 297
315 314 312 311 310 309 309 308 308 308 307 307 307 306 305 304 304 304 304 304 303 303 303 303 303 302 302 301 301 301 300 300 299 299 298 298 297 296 296 295 295 294 294 293 293 293 292 292 292 291 291 291 290 290 290 290 290 290 290 289 289 289 289 289 289 289 289 289 289 289 289 289 289 289 290 290 290 291 291 291 292 293 294 295 296 296
314 313 312 310 309 309 308 308 307 307 307 307 306 305 304 304 303 303 303 303 303 303 303 302 302 301 301 300 300 299 298 298 297 296 295 295 294 293 293 292 292 292 291 291 291 291 290 290 290 290 289 289 289 289 289 289 289 289 289 289 289 289 288 289 289 289 289 289 289 288 288 288 288 288 289 289 289 289 289 289 290 290 291 292 293 294
313 312 311 310 309 308 308 307 307 307 306 306 305 304 303 303 303 303 303 303 302 302 302 301 301 300 299 299 298 297 296 295 294 293 293 292 291 291 290 290 290 290 290 290 289 289 289 289 289 289 289 289 289 289 289 289 289 289 289 289 288 288 289 289 289 289 289 289 288 288 288 288 288 288 288 288 288 288 288 288 288 289 289 289 290 291
311 311 310 309 308 307 307 307 306 306 306 305 304 303 303 303 302 302 302 302 301 301 300 300 299 298 297 296 295 294 294 293 292 291 291 290 290 289 289 289 289 289 289 289 288 288 288 288 288 288 288 288 288 288 289 289 289 289 288 288 288 288 288 289 288 288 288 288 288 288 288 288 288 288 288 288 288 288 288 288 288 288 288 288 288 289
310 309 308 308 307 307 306 306 306 305 305 304 303 303 302 302 302 302 301 301 300 299 299 298 297 296 295 294 293 292 292 291 291 290 289 289 289 288 288 288 288 288 288 288 288 288 288 288 288 288 288 288 288 288 288 288 288 288 288 288 288 288 288 288 288 288 288 288 288 288 288 288 288 288 288 287 287 288 288 288 287 288 288 288 288 288
309 308 307 307 307 306 306 305 305 304 304 303 303 302 302 302 301 301 300 300 299 298 297 296 295 294 293 292 292 291 290 290 290 289 289 289 288 288 288 288 288 288 288 288 288 288 288 288 288 288 288 288 288 288 288 288 288 288 288 288 288 289 288 288 288 288 288 288 288 288 287 287 287 287 287 287 287 287 287 287 287 287 287 287 287 287
308 308 307 306 306 306 305 305 304 304 303 303 302 302 301 301 300 300 299 298 297 296 295 294 293 292 292 291 290 290 290 289 289 289 289 288 288 288 288 288 288 288 288 288 288 287 287 287 288 288 288 288 288 288 288 288 288 288 288 289 289 289 289 289 288 288 288 288 288 288 287 287 287 287 287 287 287 287 287 287 287 287 287 287 287 287
307 307 307 306 306 305 305 304 304 303 303 302 302 301 301 300 299 298 297 296 295 294 294 293 292 291 290 290 290 289 289 289 289 288 288 288 288 288 288 288 288 288 288 288 287 287 287 287 287 288 288 288 288 288 288 288 288 288 288 289 289 289 289 289 289 288 288 288 288 288 288 287 287 287 287 287 287 287 286 286 286 286 286 286 286 286
307 306 306 306 305 305 304 304 303 303 302 302 301 301 300 299 298 296 295 294 293 292 292 291 290 290 290 289 289 289 289 289 288 288 287 287 288 288 288 288 288 288 288 288 287 287 287 287 287 288 288 288 288 288 288 288 288 288 289 289 289 289 289 289 289 288 288 288 288 288 288 287 287 287 287 287 287 286 286 286 286 286 286 286 286 286
306 305 305 305 304 304 304 303 303 302 302 301 300 299 298 297 296 294 293 292 291 291 290 290 289 289 289 289 289 289 289 288 288 288 287 287 288 288 288 288 288 288 288 287 287 287 287 287 288 288 288 288 288 288 288 288 288 288 288 289 289 289 289 288 288 288 288 288 288 288 288 287 287 287 287 287 287 286 286 286 286 286 286 286 286 286
304 304 304 304 303 303 302 302 302 301 301 300 299 297 296 295 293 292 291 290 290 290 289 289 289 289 289 289 289 289 288 288 288 287 287 287 288 288 288 288 288 288 287 287 287 287 287 287 288 288 288 288 288 288 288 288 288 288 288 288 288 288 288 288 288 288 288 288 288 288 287 287 287 287 287 287 287 287 287 287 287 287 287 287 287 287
303 303 303 302 302 302 301 301 300 299 299 297 296 294 293 292 291 290 290 289 289 289 289 289 289 289 288 289 289 288 288 288 288 287 287 287 287 288 288 288 288 287 287 287 287 287 287 288 288 288 288 288 288 288 288 288 288 288 288 288 288 288 288 288 288 288 288 288 288 288 287 287 287 287 287 287 287 287 287 287 287 287 287 287 287 287
302 302 302 301 301 300 299 299 298 297 295 294 293 292 291 290 289 289 289 289 289 288 288 288 288 288 288 288 288 288 288 288 288 288 287 287 287 288 288 288 287 287 287 287 287 287 287 287 288 288 288 288 288 288 288 288 288 288 288 288 288 288 288 288 288 288 288 288 288 288 288 288 287 287 287 287 287 287 287 287 287 288 288 288 287 287
300 300 299 299 298 297 296 295 294 293 292 291 290 290 289 289 288 288 288 288 288 288 288 288 287 287 287 287 287 287 288 287 287 287 287 287 287 287 287 287 287 287 287 287 287 287 287 287 287 287 288 288 287 288 288 288 288 288 288 288 288 288 289 289 288 288 288 288 288 288 288 288 288 288 288 288 288 288 288 288 288 288 288 288 288 288
298 297 296 295 294 293 292 292 291 290 290 289 289 289 289 288 288 288 288 288 287 287 287 287 287 287 286 286 286 287 287 287 287 287 287 287 286 286 287 287 287 287 287 287 287 287 287 287 287 287 287 287 287 288 288 288 288 288 288 288 288 289 289 289 289 289 289 288 288 288 288 288 288 288 288 288 288 288 288 288 288 288 288 288 288 288
294 293 292 292 291 291 290 290 290 289 289 289 289 288 288 288 288 288 287 287 287 287 287 287 287 286 286 286 286 286 287 287 287 287 287 286 286 286 287 287 287 287 287 287 287 287 287 287 287 287 287 287 287 288 288 288 288 288 288 288 288 289 289 289 289 289 289 289 289 289 288 288 288 288 288 288 288 288 288 288 288 288 288 288 288 288
291 290 290 290 290 289 289 289 289 289 289 288 288 288 288 288 287 287 287 287 287 287 287 286 286 286 286 286 286 286 287 287 287 287 287 286 286 286 287 287 287 287 287 287 287 287 287 287 287 287 287 287 288 288 288 288 288 288 288 288 288 288 289 289 289 289 289 289 289 289 289 289 288 288 288 288 288 288 288 288 288 288 288 288 288 288
289 289 289 289 289 289 289 289 289 289 288 288 288 288 288 287 287 287 287 287 287 287 286 286 286 286 286 286 286 286 287 287 287 287 287 286 286 286 287 287 287 287 287 287 287 287 287 287 287 287 287 287 288 288 288 288 288 288 288 288 288 288 289 289 289 289 289 289 289 289 289 289 289 289 289 289 289 288 288 288 288 288 288 288 288 288
288 288 288 288 288 288 288 288 288 288 288 288 288 287 288 288 287 287 287 287 287 287 287 287 286 286 286 286 286 286 286 287 287 287 287 287 286 286 287 287 287 287 287 287 287 287 287 287 287 287 287 288 288 288 288 288 288 288 288 288 288 289 289 289 289 289 289 289 289 289 289 289 289 289 289 289 289 289 289 289 288 288 288 288 288 288
288 288 288 288 288 288 288 288 288 288 288 288 287 287 287 287 287 287 287 287 287 287 287 287 286 286 286 286 286 286 286 287 287 287 287 287 286 286 286 287 287 287 287 287 287 287 287 287 287 287 287 288 288 288 288 288 288 288 288 289 289 289 289 289 289 289 289 289 289 289 289 289 289 289 289 289 289 289 289 289 289 289 288 288 288 288
288 288 288 288 288 288 288 288 288 288 287 287 287 287 287 287 287 287 287 287 287 287 287 287 287 286 286 286 286 286 287 287 287 287 286 286 286 286 286 286 287 287 287 287 287 287 287 287 287 287 287 288 288 288 288 288 288 288 288 288 289 289 289 289 289 289 289 289 289 289 289 289 289 289 289 289 289 289 289 289 289 289 289 288 288 289
288 288 288 288 288 288 288 288 287 287 287 287 287 287 287 287 287 287 287 287 287 287 287 287 286 286 286 286 286 286 286 286 286 286 286 286 286 286 286 286 287 287 287 287 287 287 287 287 287 287 287 288 288 288 288 288 288 288 288 288 288 288 288 289 289 289 289 289 289 289 289 289 289 289 289 289 289 289 289 289 289 289 289 289 289 289
288 288 288 288 287 287 287 287 287 287 287 287 287 287 287 287 287 287 287 287 287 287 286 286 286 286 286 286 286 286 286 286 286 286 286 286 286 286 286 287 287 287 287 287 287 287 287 287 287 287 287 288 288 288 288 288 288 288 288 288 288 288 288 288 289 289 289 289 289 289 289 289 289 289 289 289 289 289 289 289 289 289 289 289 289 289
288 288 287 287 287 287 287 287 287 287 287 287 287 287 287 287 286 286 286 287 287 286 286 286 286 286 286 286 286 285 285 285 286 286 286 286 286 286 287 287 287 287 287 287 287 287 287 287 287 287 287 288 288 288 288 288 288 288 288 288 288 288 288 288 288 289 289 289 289 289 289 289 289 289 289 289 289 289 289 289 289 289 289 289 289 289
288 288 287 287 287 287 287 287 287 287 287 287 287 287 287 287 286 286 286 286 286 286 286 286 286 286 286 286 286 285 285 285 286 286 286 286 286 287 287 287 287 287 287 287 287 287 287 287 287 287 287 288 288 288 288 288 288 288 288 288 288 288 288 288 288 289 289 289 289 289 289 289 289 289 289 289 289 289 289 289 289 289 289 289 289 289
288 288 287 287 287 287 287 287 287 287 287 287 287 287 287 287 286 286 286 286 286 286 286 286 286 286 286 286 286 286 285 285 286 286 286 286 286 286 287 287 287 287 287 287 287 287 287 287 287 287 287 287 287 287 287 287 288 288 288 288 288 288 288 288 288 288 289 289 289 289 289 289 289 289 289 289 289 289 289 289 289 289 289 289 289 289
287 287 287 287 286 286 286 286 286 286 286 286 286 286 287 286 286 286 286 286 286 286 286 286 286 286 286 286 286 286 285 285 286 286 286 286 286 286 286 286 286 286 286 286 286 286 287 286 286 287 287 287 287 287 287 287 287 288 288 288 288 288 288 288 288 289 289 289 289 289 289 289 289 289 289 289 289 289 289 289 289 289 289 289 289 289
287 286 286 286 286 286 286 286 286 286 286 286 286 286 286 286 286 286 286 286 286 286 286 286 286 286 286 286 286 286 285 285 285 286 286 286 286 286 286 286 286 286 286 286 286 286 286 286 286 286 286 286 286 286 286 286 287 287 288 288 288 288 288 288 288 289 289 289 289 289 289 289 289 289 289 289 289 289 289 289 289 289 289 289 289 289
286 286 286 286 286 286 286 285 285 285 285 285 285 285 285 286 286 286 286 286 286 286 286 286 286 286 286 286 286 286 285 285 285 286 286 286 286 286 286 286 286 286 286 286 286 286 286 286 286 286 286 286 286 286 286 286 286 287 287 287 288 288 288 288 288 289 289 289 289 289 289 289 289 289 289 289 289 289 289 289 289 289 289 289 289 289
287 287 287 287 286 286 286 286 286 285 285 285 285 285 285 285 285 286 286 286 286 286 286 286 286 286 286 286 286 286 285 285 285 286 286 286 286 286 286 286 286 286 286 286 286 286 286 286 286 286 286 286 286 285 285 286 286 287 287 287 287 288 288 288 288 289 289 289 289 289 289 289 289 289 289 289 289 289 289 289 289 289 289 289 289 289
287 287 287 287 287 287 287 287 287 286 286 286 286 286 286 286 286 286 286 286 286 286 286 286 286 286 286 286 286 286 285 285 286 286 286 286 286 286 286 286 286 286 286 286 286 286 286 286 286 286 286 286 286 286 286 286 286 287 287 287 287 288 288 288 289 289 289 289 289 290 290 290 290 290 289 289 289 289 289 289 289 289 289 289 289 289
287 287 287 287 287 287 287 287 287 287 287 286 286 286 286 286 286 286 286 286 286 286 286 286 286 286 286 286 286 286 285 285 285 286 286 286 286 286 286 286 286 286 285 285 285 285 286 286 286 286 286 286 287 287 287 286 286 287 287 287 287 287 288 288 289 289 289 289 290 290 290 290 290 290 290 289 289 289 289 289 289 289 289 289 289 289
287 287 287 287 287 287 287 287 287 287 287 286 286 286 286 286 286 286 286 286 286 286 286 286 286 286 286 286 286 286 285 285 285 285 285 285 285 285 285 285 285 285 285 285 285 285 285 285 286 286 286 286 287 287 287 287 287 287 287 287 287 287 288 288 289 289 289 289 290 290 290 290 290 290 290 289 289 289 289 289 289 289 289 289 289 289
287 287 287 286 287 287 286 286 286 286 286 286 286 286 286 286 286 286 286 286 286 286 286 286 286 286 286 286 285 285 285 285 285 285 285 285 285 285 285 285 285 285 285 285 285 285 285 285 286 286 286 287 287 287 287 287 287 288 288 288 287 287 287 288 289 289 289 289 289 289 289 289 289 289 289 289 289 289 289 289 289 289 288 289 289 289
287 287 287 287 287 287 287 286 286 286 286 286 286 286 286 286 286 286 286 286 286 286 286 286 286 286 286 286 285 285 285 285 285 285 285 285 285 285 285 285 285 285 285 285 285 285 285 285 285 286 286 286 287 287 287 287 287 288 288 288 288 287 287 288 288 289 289 289 289 289 289 289 289 289 289 289 289 289 289 289 289 288 288 288 288 288
287 286 286 287 287 287 287 286 286 286 286 286 286 286 286 286 286 286 286 286 286 286 286 286 286 286 286 286 285 285 285 285 285 285 285 285 285 285 285 285 285 285 285 285 285 285 285 285 285 286 286 286 286 287 287 288 288 288 288 288 288 288 287 288 288 289 289 289 289 289 289 289 289 289 289 289 289 289 289 289 288 288 288 288 288 288
286 286 286 286 286 286 286 286 286 286 286 286 286 286 286 286 286 286 286 286 286 286 286 286 286 286 286 286 285 285 285 285 285 285 285 285 285 285 285 285 285 285 285 285 285 285 285 285 285 285 286 286 286 287 287 288 288 288 288 288 288 288 287 288 288 288 289 289 289 289 289 289 289 289 289 289 289 289 288 288 288 288 288 288 288 288
286 286 286 286 286 286 286 286 286 286 286 286 286 286 286 286 286 286 286 286 286 286 286 286 286 286 286 286 285 285 285 285 285 285 285 285 285 285 285 285 285 285 285 285 285 285 285 285 285 285 285 286 286 287 287 288 288 288 287 287 288 288 288 287 288 288 288 289 289 289 289 289 289 289 289 288 288 288 288 288 288 288 288 288 288 288
286 286 286 286 286 286 286 286 286 286 286 286 286 286 286 286 286 286 286 286 286 286 285 286 286 286 286 286 285 284 284 285 285 285 285 285 285 285 285 285 285 285 285 285 285 285 285 285 285 285 285 286 286 287 287 288 288 288 287 287 287 288 288 288 287 288 288 288 288 288 288 288 289 288 288 288 288 288 288 288 288 288 288 288 288 288
287 287 286 286 286 286 286 286 286 286 286 286 285 285 285 286 286 286 286 286 286 285 285 285 286 286 286 286 285 284 284 284 284 284 284 284 284 284 285 285 285 285 284 284 284 285 285 285 285 285 286 286 286 287 287 287 287 287 287 287 288 288 288 288 288 288 288 288 288 288 288 288 288 288 288 288 288 288 287 287 287 287 287 287 287 287
287 287 286 286 286 286 286 286 286 286 286 285 285 285 285 285 286 286 286 286 286 285 285 285 286 286 286 285 285 284 284 284 283 283 283 284 284 284 284 284 284 284 284 284 284 284 285 285 285 285 286 286 287 287 287 287 287 287 287 288 288 288 288 288 288 288 288 288 288 288 288 288 288 288 288 288 287 287 287 287 287 287 287 287 287 287
287 287 287 287 286 286 286 286 286 285 285 285 285 285 285 285 285 285 286 286 285 285 285 285 285 285 285 285 285 285 284 284 283 283 283 283 283 283 284 284 284 284 284 284 284 284 285 285 285 285 286 286 287 287 287 287 287 287 288 288 288 288 288 288 287 287 288 288 288 288 288 288 288 288 288 288 287 287 287 287 287 287 287 286 286 286
288 288 287 287 287 287 286 286 286 286 285 285 285 284 284 285 285 285 285 285 285 285 285 285 285 285 285 285 285 285 285 284 284 283 283 283 282 283 283 283 284 284 284 284 284 284 285 285 285 285 286 286 286 287 287 287 287 287 288 288 288 288 288 288 287 287 287 287 287 287 287 287 287 287 287 287 287 287 287 287 286 286 286 286 286 286
288 288 288 288 288 287 287 286 286 286 286 286 285 285 284 284 285 285 285 285 285 285 285 285 285 286 285 285 285 285 285 285 284 284 283 283 283 282 283 283 283 283 283 284 284 284 285 285 285 285 285 286 286 286 286 287 287 287 287 288 288 288 288 287 287 287 287 287 287 287 287 287 287 287 287 287 288 287 287 287 287 286 286 286 286 286
289 289 289 288 288 288 288 287 287 287 287 287 286 286 285 285 285 285 285 285 285 285 286 286 286 286 286 286 286 285 285 285 284 284 284 283 283 283 283 283 283 283 283 283 284 284 284 285 285 285 285 285 286 286 286 286 287 287 287 287 287 287 287 287 287 287 287 287 287 287 287 287 287 287 287 287 288 288 288 287 287 287 286 286 286 286
288 289 289 289 289 288 288 288 288 288 288 287 287 287 286 286 286 285 286 286 286 286 286 286 287 287 287 287 286 286 285 285 285 284 283 283 283 283 283 283 283 283 283 283 283 284 284 284 285 285 285 285 285 286 286 286 286 287 287 287 287 287 287 287 287 286 287 287 287 287 287 287 287 287 287 287 287 288 288 288 287 287 287 286 286 286
Wind_Speed
20 19 19 20 20 21 21 22 21 20 19 18 18 17 18 18 18 17 15 14 13 12 11 10 10 9 9 9 9 9 9 10 10 11 11 11 10 10 9 9 9 9 9 10 10 10 11 12 12 12 13 13 13 14 14 14 14 14 14 14 15 15 15 15 15 15 15 15 15 15 16 16 15 14 12 12 11 11 11 12 12 13 13 12 11 11
19 20 21 22 22 22 22 22 20 19 18 17 17 17 18 18 17 15 13 12 11 11 11 10 10 9 9 9 9 10 10 11 11 12 12 12 12 11 11 11 10 10 10 11 11 11 12 12 13 13 13 14 14 14 14 15 15 15 15 15 16 16 16 16 16 16 16 16 16 16 16 16 16 15 14 13 12 12 13 13 14 14 14 14 13 12
20 21 22 23 22 22 21 20 19 17 17 17 17 18 17 16 15 14 12 11 11 11 10 10 10 9 10 10 10 10 11 12 12 13 13 13 13 13 12 12 12 12 12 13 13 13 14 14 14 15 15 15 15 16 16 16 16 16 16 16 16 17 17 17 17 17 17 17 17 16 16 16 16 15 15 14 14 13 14 14 15 15 15 16 15 13
23 23 24 24 23 21 20 19 18 17 17 17 17 17 16 15 14 12 12 11 11 11 10 10 10 10 10 10 11 11 12 13 13 14 14 14 14 13 13 13 13 13 13 14 14 14 15 15 15 15 16 16 16 16 16 16 16 16 16 16 16 16 16 16 17 17 17 16 16 16 16 16 16 16 15 15 14 14 14 14 15 15 16 16 16 15
26 25 25 24 23 21 19 18 17 17 17 17 17 16 15 14 13 12 12 11 11 11 11 10 10 10 11 11 12 12 13 14 14 15 15 15 14 14 14 14 14 14 14 14 14 14 15 15 15 15 15 15 15 15 15 15 15 15 15 15 15 15 15 16 16 16 16 16 15 15 15 15 15 15 15 15 14 14 14 14 14 15 15 16 16 15
27 26 26 24 22 20 19 18 18 17 17 17 16 15 14 13 12 12 12 11 11 11 11 11 11 11 12 12 13 13 14 15 16 16 15 15 15 14 14 13 13 13 13 13 14 14 14 14 15 15 15 15 15 15 15 15 15 14 14 14 14 14 15 15 15 15 15 15 15 14 14 14 15 15 15 15 14 14 14 13 13 13 14 14 15 15
27 27 26 24 22 20 19 18 18 18 17 16 15 14 13 12 12 12 12 12 11 11 11 12 12 13 13 13 14 15 15 16 16 16 15 14 14 13 13 13 13 13 13 13 13 13 14 14 14 14 15 15 15 15 15 14 14 14 14 13 13 14 14 15 15 15 15 14 14 14 14 14 14 14 14 14 14 14 13 13 13 13 13 13 14 14
26 26 25 23 21 20 19 18 18 17 16 15 14 13 13 13 12 12 12 12 12 12 12 13 13 14 14 14 15 15 16 16 15 15 14 13 13 12 12 12 12 12 12 13 13 13 14 14 14 14 15 15 15 14 14 14 14 13 13 13 13 13 14 14 14 14 14 14 14 13 13 13 14 14 14 14 14 14 13 13 13 12 12 13 13 13
26 25 24 21 20 19 19 18 18 17 15 15 14 13 13 13 13 13 12 12 13 13 13 13 13 14 14 14 14 15 15 15 14 13 12 12 12 12 12 12 12 12 12 13 13 13 14 14 15 15 15 15 14 14 14 13 13 12 12 12 13 13 13 13 13 13 13 13 13 13 13 13 13 13 13 14 14 14 13 13 13 13 13 13 13 13
26 24 22 20 19 18 18 17 17 16 15 14 14 14 13 13 13 13 13 13 13 14 14 14 13 13 13 14 14 14 14 13 13 12 12 11 11 12 12 12 12 12 12 13 13 13 14 14 15 15 14 14 14 13 13 13 12 12 12 12 12 12 12 12 12 12 13 13 13 13 13 13 13 13 13 14 14 14 14 13 13 13 13 13 13 13
24 22 20 20 19 18 17 17 16 15 14 14 14 14 14 14 14 13 13 14 14 14 14 14 13 13 12 12 13 13 13 12 12 12 12 11 11 12 12 12 12 12 12 12 13 13 14 14 14 14 14 13 13 13 12 12 12 12 12 12 12 12 12 12 12 12 12 12 12 12 12 13 13 13 13 13 14 14 14 14 14 13 13 13 13 14
21 20 20 19 18 17 16 16 16 15 15 14 14 14 14 15 14 14 13 14 14 15 14 14 13 12 12 11 12 12 12 12 12 12 11 11 11 11 12 11 11 11 11 12 12 13 13 13 14 13 13 12 12 12 12 12 12 12 12 12 12 12 12 12 12 12 12 12 12 12 12 12 12 12 13 13 13 13 14 14 14 14 13 13 13 13
20 19 18 18 17 16 16 16 15 15 15 15 15 15 15 15 14 14 13 14 14 14 14 13 13 12 12 11 11 12 12 12 12 11 11 11 11 11 11 11 11 10 10 11 11 12 13 13 13 13 12 12 12 12 12 12 12 12 12 12 12 12 11 11 11 11 11 11 11 11 11 12 12 12 12 12 13 13 13 13 13 13 13 13 13 13
18 17 16 16 16 16 15 15 15 15 15 15 15 15 15 15 15 14 14 14 14 14 13 13 12 11 11 11 12 12 12 12 12 11 11 11 11 11 11 11 10 10 10 10 11 11 12 13 13 12 12 12 12 12 12 12 12 12 12 12 12 11 11 11 11 11 11 11 11 11 11 11 11 11 11 11 12 12 12 12 13 13 13 13 13 13
15 15 15 15 15 15 15 15 15 15 16 16 15 15 15 15 15 14 13 13 13 13 12 12 12 11 11 11 12 12 12 12 12 11 11 11 11 11 11 11 11 10 10 10 11 11 12 12 12 12 12 12 12 12 12 11 12 12 11 11 11 11 11 10 10 10 10 10 10 10 10 10 10 10 10 10 11 11 11 11 11 12 12 12 12 12
13 13 13 13 14 14 14 15 15 16 16 16 16 15 15 14 14 13 12 12 12 12 11 11 11 11 12 12 12 12 12 12 12 11 11 11 11 11 11 11 11 10 10 11 11 11 12 12 12 12 12 12 11 11 11 11 11 11 11 10 10 10 10 10 9 9 9 9 9 9 9 9 9 9 9 10 10 10 10 10 10 10 10 11 11 11
12 12 12 13 13 14 15 15 16 16 16 16 15 14 13 13 12 12 12 11 11 11 11 11 11 12 12 12 12 12 12 12 11 10 10 10 11 12 12 12 11 11 10 11 11 11 11 11 11 11 11 11 11 11 11 10 10 10 10 10 9 9 9 9 8 8 8 8 8 8 8 8 8 9 9 9 9 9 9 8 8 9 9 9 9 9
12 12 13 13 14 15 16 16 16 16 15 14 13 12 12 12 12 11 11 11 11 11 11 11 12 12 12 12 11 11 12 12 11 10 10 10 11 12 12 12 11 10 10 11 11 11 11 11 11 11 11 11 10 10 10 10 9 9 9 9 8 8 8 8 8 8 7 7 7 7 7 8 8 8 8 8 8 8 8 8 8 8 8 8 8 8
13 14 14 14 15 15 16 16 15 14 13 12 11 10 10 11 11 11 11 11 11 11 11 11 11 11 10 11 11 11 11 11 11 10 10 9 10 12 12 11 11 10 10 10 11 11 11 11 11 11 10 10 10 10 9 9 9 8 8 8 8 8 8 7 7 7 7 7 7 7 7 7 7 7 7 7 7 7 7 7 7 7 7 7 7 7
14 14 15 14 14 14 14 13 12 11 10 10 10 10 10 10 11 11 11 11 11 11 11 11 10 10 10 10 10 11 11 11 11 10 9 9 10 11 11 11 10 10 10 10 10 10 10 10 10 10 10 10 9 9 9 8 8 8 8 8 7 7 7 7 7 7 7 7 7 7 7 7 7 7 7 7 7 7 7 7 7 7 7 7 7 6
14 14 14 13 12 11 11 10 9 9 9 9 10 10 10 10 10 10 11 11 10 10 10 10 10 9 9 10 10 10 10 10 10 10 9 9 10 11 11 10 10 10 10 10 10 10 10 10 10 10 10 9 9 9 9 8 8 8 8 7 7 7 7 7 7 7 7 7 7 7 7 7 7 7 7 7 7 7 7 7 8 8 7 7 7 7
13 12 12 11 10 9 9 8 9 9 10 10 10 10 10 10 10 10 10 10 10 10 9 9 9 9 8 9 9 10 10 10 10 10 9 9 9 10 10 10 10 10 9 9 10 10 10 10 10 10 9 9 9 9 9 8 8 8 8 7 7 7 7 7 7 7 7 7 7 7 7 7 7 7 7 7 7 7 8 8 8 8 8 8 8 7
12 11 11 10 9 9 9 9 10 10 11 10 10 10 10 10 10 10 10 10 9 9 9 9 8 8 8 9 9 10 10 10 9 10 9 9 9 9 10 10 10 10 9 9 9 10 11 10 10 9 9 9 9 9 8 8 8 8 7 7 7 7 7 7 7 7 7 7 7 7 7 7 8 8 8 8 8 8 8 8 9 9 9 8 8 8
11 10 10 9 9 9 10 10 10 10 11 10 10 11 11 10 10 10 10 9 9 9 8 8 8 8 8 9 9 10 10 10 9 9 9 9 9 9 9 10 10 9 9 9 10 10 10 10 10 9 9 9 9 9 8 8 8 7 7 7 7 6 6 6 7 7 7 7 7 8 8 8 8 8 8 8 9 9 9 9 9 9 9 9 9 9
9 9 9 9 10 10 10 10 10 10 10 10 10 10 9 9 9 8 8 8 8 8 8 8 7 7 8 8 9 10 10 9 9 9 9 9 9 9 9 10 10 10 9 9 10 10 10 10 9 8 8 8 8 8 8 8 7 7 7 6 6 6 6 6 6 7 7 7 8 8 8 8 9 9 9 9 9 9 9 9 10 10 10 10 10 10
9 9 9 9 10 10 10 10 10 9 9 9 9 9 8 8 8 8 8 8 8 7 7 7 7 7 7 8 8 9 9 9 9 9 10 10 10 9 9 9 10 10 9 9 10 10 10 9 8 8 8 8 8 8 7 7 7 6 6 6 6 6 6 7 7 7 7 8 8 8 9 9 9 9 10 10 10 10 10 10 10 11 11 11 11 11
8 9 9 9 9 9 9 9 9 9 9 8 8 8 8 8 8 8 8 8 8 8 8 7 7 7 7 7 8 9 9 9 10 10 10 11 11 10 9 9 10 10 10 9 9 10 9 9 8 8 7 8 8 7 7 7 6 6 6 6 6 7 7 8 8 8 8 8 9 9 9 10 10 10 10 10 10 11 11 11 11 11 12 12 12 12
8 8 9 9 9 9 9 9 8 8 8 8 8 8 8 8 8 9 9 8 8 8 8 8 7 7 7 7 8 9 9 10 11 11 11 11 11 11 10 9 10 10 9 9 9 10 9 9 8 8 8 7 7 7 7 6 6 6 6 7 7 8 8 8 9 9 9 9 9 10 10 10 10 11 11 11 11 11 11 11 12 12 12 13 13 13
8 8 8 8 8 8 8 8 8 8 8 8 8 8 8 9 9 9 9 9 8 8 8 8 8 8 8 8 8 9 10 11 12 12 11 12 12 11 10 10 10 10 9 9 10 10 9 9 8 8 7 7 7 7 7 7 7 7 7 8 8 8 9 9 9 9 10 10 10 10 10 11 11 11 11 12 12 12 12 12 12 13 13 13 13 13
8 7 7 7 7 7 7 7 7 8 8 8 8 8 8 8 8 8 8 8 8 8 8 8 8 8 8 8 8 9 10 11 12 12 11 12 12 12 11 11 10 10 9 9 9 9 9 9 8 7 7 7 7 8 8 8 8 8 8 8 9 9 9 9 10 10 10 10 11 11 11 11 12 12 12 12 12 12 12 13 13 13 14 14 14 13
7 6 6 6 6 6 6 6 7 7 7 8 8 8 8 8 8 8 8 8 8 8 8 8 9 9 9 9 9 9 9 10 11 11 11 11 12 13 12 11 11 10 10 10 10 9 8 8 8 8 8 8 8 8 9 9 9 9 9 9 9 9 9 10 10 10 11 11 11 12 12 12 12 12 12 12 12 12 13 13 14 14 14 14 14 14
5 5 5 5 5 5 6 6 6 7 7 7 8 7 7 7 7 8 8 8 8 9 9 9 9 10 10 9 9 9 10 10 11 12 11 12 13 13 13 12 12 11 11 11 11 10 8 8 8 8 8 9 9 10 10 10 10 10 10 9 9 9 10 10 10 11 11 12 12 12 12 12 12 12 12 12 12 12 13 13 14 14 15 15 15 14
5 5 5 5 5 6 6 6 6 6 7 7 7 7 7 7 7 8 8 9 9 9 10 10 10 10 10 10 9 9 10 11 12 12 12 13 13 14 13 13 13 12 12 11 12 12 11 11 10 10 10 10 10 10 11 11 11 10 10 9 9 10 10 11 11 12 12 12 12 12 12 12 12 12 12 12 12 12 13 13 14 14 15 15 15 15
5 5 5 5 5 5 6 6 6 6 7 7 7 8 8 8 8 9 9 10 10 10 10 10 11 11 11 11 10 9 9 11 12 13 13 13 13 14 14 13 13 13 12 12 12 13 13 13 12 12 11 11 11 11 11 11 11 10 10 10 10 10 11 11 12 12 12 12 12 12 12 12 12 12 12 12 12 12 12 13 13 14 14 15 15 15
4 4 5 5 5 5 5 6 6 6 7 7 7 8 8 8 9 9 10 10 10 11 11 11 11 11 11 11 10 9 9 11 13 13 13 12 13 13 14 14 13 13 13 13 13 13 14 14 13 13 12 12 11 10 10 11 11 10 10 10 10 11 12 12 12 12 12 11 11 11 12 12 12 12 12 11 11 11 12 12 12 13 13 14 14 15
4 4 4 4 4 5 5 5 5 6 6 7 7 8 8 8 9 9 10 10 10 11 11 11 11 11 11 11 11 10 10 12 13 13 13 13 13 13 14 14 14 14 14 14 14 15 15 15 15 14 13 12 11 10 10 10 11 10 10 10 11 11 12 13 12 12 11 11 11 11 11 11 11 11 11 11 11 11 11 11 11 12 12 13 13 14
3 4 4 4 4 4 4 5 5 5 6 6 7 7 8 8 9 9 9 10 10 11 11 12 12 12 12 12 12 11 12 13 14 14 13 13 13 13 14 14 14 14 14 14 15 15 16 16 16 15 14 13 12 11 10 10 10 10 10 10 10 11 12 13 13 12 11 11 10 10 11 11 11 11 11 11 11 11 11 11 11 11 11 12 12 13
4 4 4 4 4 4 5 5 5 5 6 6 7 7 8 8 9 9 10 10 11 11 11 12 12 12 13 12 12 12 12 13 14 14 14 14 14 14 14 15 14 14 14 14 15 16 16 16 16 16 14 13 12 12 11 10 10 9 9 9 10 11 12 13 13 12 11 10 10 10 10 11 11 11 11 11 11 11 11 11 11 11 11 11 12 12
4 4 4 5 5 5 5 5 5 6 6 7 7 7 8 9 9 10 10 11 11 11 12 12 12 13 13 13 12 12 12 13 13 14 15 15 15 15 15 15 15 15 14 14 15 15 16 16 16 16 15 14 13 12 11 11 10 9 9 9 9 10 12 13 13 12 11 10 10 10 11 11 10 11 11 11 11 11 11 11 11 11 11 11 11 11
5 5 5 5 5 5 5 6 6 6 7 7 7 8 9 9 10 11 11 11 11 11 12 12 12 12 12 12 12 12 12 13 13 14 15 15 16 16 15 15 15 15 15 15 15 15 16 16 16 16 15 14 14 13 12 11 11 10 10 9 8 8 10 12 12 11 11 11 11 11 11 11 10 11 11 11 11 11 11 11 11 11 11 11 11 11
5 5 6 6 6 6 6 6 6 7 7 8 8 9 10 10 11 11 11 11 11 11 12 12 12 12 12 12 12 12 12 13 14 14 15 16 16 16 16 16 16 16 16 16 15 15 16 16 16 15 15 15 14 14 13 12 11 10 10 10 9 8 9 11 12 12 11 11 11 11 11 11 11 11 11 11 11 11 11 11 11 11 11 11 11 11
5 5 6 6 6 6 6 7 7 7 8 8 9 9 10 10 11 11 11 11 11 11 11 11 12 12 11 11 11 11 12 13 14 14 15 16 16 16 17 17 17 17 16 16 16 16 16 16 16 16 15 15 15 15 15 13 12 11 11 11 10 10 10 11 12 12 11 12 12 11 11 11 11 11 11 11 11 11 11 12 12 12 12 12 12 12
5 5 6 6 6 6 7 7 7 8 8 8 8 9 10 10 10 11 11 11 11 11 11 11 11 11 11 11 10 11 12 12 13 14 15 15 16 16 17 17 17 17 17 17 17 17 16 16 16 16 15 16 16 16 16 14 12 11 11 11 11 11 11 11 12 12 12 12 12 12 12 12 12 11 11 11 11 12 12 12 12 13 13 13 13 13
5 5 6 6 7 7 7 8 8 8 8 8 8 9 10 10 11 11 11 11 10 10 11 11 11 11 11 10 10 10 11 12 13 14 14 15 16 16 17 17 17 18 17 17 17 17 17 16 16 16 16 16 17 17 16 15 13 12 12 12 12 12 11 11 11 12 12 12 13 13 13 13 12 12 12 12 12 12 13 13 13 13 13 13 13 13
6 6 6 7 7 8 8 8 9 9 9 9 9 9 10 11 11 11 11 11 11 11 11 11 11 11 11 10 9 10 10 12 13 13 14 15 16 16 17 17 18 18 18 18 18 18 17 17 17 16 16 16 17 17 16 15 14 13 13 13 13 13 13 12 12 12 13 13 14 14 14 13 13 13 13 13 13 13 13 13 13 14 14 14 14 14
6 6 7 7 8 8 8 9 9 9 9 9 9 10 10 11 12 12 12 12 12 11 11 11 11 11 11 11 10 10 10 11 12 13 14 15 16 17 17 17 18 18 18 18 18 18 18 18 17 17 17 17 17 17 16 15 15 14 14 14 14 14 13 12 12 13 13 14 14 15 15 14 14 14 14 14 14 14 14 14 14 14 14 15 15 15
7 7 7 8 8 8 9 9 9 9 9 9 9 10 11 11 12 12 12 12 12 12 12 12 12 12 12 11 11 11 10 10 11 12 13 14 15 16 17 18 18 18 18 19 19 19 18 18 18 17 17 17 17 17 15 15 14 14 15 15 14 14 13 12 12 13 14 14 15 15 15 15 15 15 15 15 15 15 15 15 15 15 16 16 16 16
8 8 8 9 9 9 9 9 9 9 9 9 9 10 11 11 12 12 13 13 13 13 12 12 12 12 12 12 12 12 11 11 11 12 12 13 15 16 17 18 18 18 18 19 19 19 19 18 18 18 18 18 17 16 15 14 14 14 15 15 14 13 12 11 12 13 14 14 15 15 16 16 16 16 16 16 16 16 16 16 16 17 17 17 17 17
9 9 9 10 10 10 10 10 10 10 10 10 10 10 11 11 12 12 13 13 13 13 13 13 13 13 13 13 12 12 13 13 12 12 12 13 14 15 16 17 18 18 18 18 19 19 19 19 19 18 18 17 17 16 15 15 14 15 15 15 14 13 11 11 12 13 14 14 15 16 16 17 17 17 17 17 18 18 17 17 18 18 18 18 19 19
10 10 10 11 11 11 11 11 11 11 11 11 10 10 11 11 12 12 13 13 13 13 13 13 13 13 14 13 13 13 14 14 14 13 13 13 14 15 16 17 17 17 17 18 18 18 19 19 19 19 18 17 16 16 16 15 15 15 15 14 13 12 11 11 12 13 14 15 16 17 17 17 18 18 18 18 19 19 19 18 18 18 18 19 19 20
11 11 11 11 11 11 11 12 12 11 11 11 11 11 11 11 11 12 12 13 13 13 13 14 14 14 14 14 15 15 15 15 15 14 13 13 14 14 15 16 16 17 17 17 18 18 19 19 20 19 18 17 16 16 15 15 15 15 14 13 12 12 11 11 12 13 14 15 16 17 18 18 19 19 19 19 20 20 20 19 19 19 19 20 20 20
Wind_Direction
244 248 253 257 260 263 267 271 273 274 275 276 277 279 280 281 280 278 274 268 262 257 252 248 244 240 237 236 236 238 242 244 246 248 248 248 247 245 242 240 238 237 239 242 245 248 250 252 254 256 258 259 261 262 263 264 266 267 268 270 270 271 271 271 270 269 269 269 269 270 272 275 277 277 276 275 271 265 255 250 251 255 257 256 250 240
245 251 257 262 265 269 272 274 274 274 274 275 277 279 280 280 279 274 268 259 252 246 242 239 238 237 236 238 241 244 248 251 253 254 255 257 258 259 259 259 258 257 256 256 257 258 259 260 261 262 262 263 264 265 266 267 268 269 270 271 272 273 273 273 272 272 272 272 272 273 274 275 276 275 273 271 268 263 256 249 246 249 253 255 253 245
250 256 261 267 271 274 276 276 274 273 272 273 276 278 279 277 274 268 260 251 243 238 235 234 235 237 240 245 249 252 255 257 259 260 260 261 262 264 266 266 267 268 268 268 268 268 268 268 269 269 269 269 269 269 270 270 270 271 272 273 273 274 274 273 273 272 272 272 273 273 274 274 274 273 271 268 266 263 258 251 246 245 248 253 255 252
258 262 266 272 275 276 275 274 272 271 271 272 275 276 276 272 266 259 252 243 236 232 231 232 235 240 246 251 256 259 261 263 263 263 263 264 264 265 266 268 269 271 272 272 273 273 273 274 274 273 273 273 272 272 272 272 272 272 273 273 274 274 274 274 273 273 273 273 272 272 273 273 272 272 270 269 267 265 261 255 249 245 245 249 253 254
262 266 270 274 276 274 272 269 268 268 269 271 273 273 271 265 258 252 246 239 234 231 231 234 238 243 248 254 259 262 264 265 265 265 265 265 266 266 267 269 270 272 273 274 274 275 275 276 276 275 275 275 275 274 274 274 274 274 274 274 275 275 275 275 274 273 273 273 273 272 272 272 272 272 271 270 269 267 265 262 256 250 247 247 249 251
263 266 270 273 272 270 267 264 263 265 267 269 270 268 263 257 251 246 242 239 236 235 237 241 245 250 255 259 263 265 266 266 266 266 266 266 267 267 268 269 270 271 272 273 274 275 275 275 275 275 275 275 275 275 275 275 275 275 276 276 276 276 275 275 274 274 274 274 274 273 273 272 272 272 273 272 272 270 269 267 264 258 253 250 249 250
262 266 269 270 269 265 262 260 261 262 264 266 266 261 255 249 245 242 241 242 242 243 246 251 255 259 263 265 267 268 268 267 267 267 267 267 267 268 268 269 269 270 271 272 272 273 273 274 274 274 274 275 275 275 276 276 277 278 278 277 277 275 274 274 275 275 276 276 276 275 275 274 274 273 273 273 273 272 272 270 268 264 260 255 253 252
261 264 266 265 263 260 258 257 258 260 261 261 259 254 248 244 242 242 244 246 249 251 254 258 262 266 268 269 269 269 268 267 267 267 267 267 268 268 268 268 268 269 270 270 270 271 271 272 272 272 273 274 274 275 276 278 278 279 279 278 276 274 274 275 276 277 278 279 278 278 277 276 275 274 273 273 273 273 273 272 270 268 264 260 257 256
261 263 263 261 257 255 255 255 256 255 255 254 251 247 243 242 243 245 248 252 255 258 260 263 266 268 270 269 268 267 266 265 265 265 265 266 266 266 266 267 267 267 268 268 268 269 269 270 271 271 272 273 275 276 278 279 280 280 279 278 276 275 276 277 278 279 280 280 280 279 278 277 276 274 274 273 273 273 272 272 270 269 266 263 260 259
258 259 258 255 252 250 251 252 253 252 249 247 245 243 242 242 245 249 254 257 260 263 265 266 267 268 268 267 265 264 263 262 262 262 263 263 263 263 263 263 263 264 265 266 266 267 268 269 270 271 272 274 276 277 279 280 281 281 280 278 278 278 279 280 281 282 281 281 280 279 278 277 275 274 273 272 272 272 271 270 269 268 266 265 263 261
252 251 249 248 246 245 244 245 247 246 244 242 241 241 242 243 247 252 257 260 263 265 267 267 267 266 264 262 261 260 259 260 260 261 262 263 263 262 261 260 260 261 262 263 265 266 268 269 270 272 273 275 277 279 280 282 282 282 281 281 281 282 283 284 284 283 282 281 280 279 277 276 274 273 272 271 271 271 270 270 268 267 266 265 264 263
244 243 241 242 242 241 239 239 240 241 240 239 238 239 242 246 249 253 257 260 263 264 266 267 266 264 261 259 257 258 258 261 263 265 266 267 266 265 263 261 260 260 261 263 264 266 268 270 271 273 275 277 279 281 282 283 284 284 284 284 285 285 285 285 285 284 283 282 280 279 277 275 273 272 271 270 270 270 270 269 269 268 267 265 265 264
238 237 236 236 237 237 237 236 237 237 238 238 239 242 246 250 254 256 256 258 260 262 263 264 264 263 260 257 257 258 261 264 267 269 270 271 270 269 268 266 265 264 264 265 267 268 270 271 273 275 277 279 281 282 283 284 284 284 284 284 285 285 285 285 284 284 283 282 281 279 277 275 273 272 271 270 270 270 269 269 269 269 268 267 265 264
234 233 233 233 234 234 235 236 237 238 239 241 244 247 251 254 256 257 257 256 257 259 260 260 260 260 259 258 258 260 263 266 268 270 271 271 270 270 269 268 267 267 266 267 268 268 270 272 274 277 279 280 281 282 282 282 282 282 282 282 283 283 283 284 283 283 283 282 281 279 278 276 275 274 273 272 271 271 270 270 270 270 269 267 266 264
231 230 230 231 232 234 235 237 239 241 244 246 249 251 253 255 256 256 255 253 253 254 255 255 255 256 257 258 260 262 264 265 267 268 269 268 267 267 267 267 267 267 267 268 267 267 269 271 274 276 278 279 279 279 279 278 278 277 277 278 279 280 281 282 282 282 282 281 281 280 279 278 277 277 276 275 274 273 273 272 272 270 269 267 265 263
230 229 228 230 232 235 237 239 241 243 246 249 251 253 253 254 255 255 253 251 251 251 251 251 252 253 254 256 259 262 264 265 266 266 265 262 263 264 264 265 266 268 268 268 267 267 268 270 272 274 275 276 276 275 274 273 272 272 273 274 275 277 278 279 280 280 281 281 281 280 280 280 279 279 278 278 277 276 276 276 274 272 269 267 265 263
230 230 230 232 234 237 240 242 244 246 248 250 252 253 253 252 253 253 252 250 250 249 249 250 253 255 255 253 256 260 262 264 265 263 260 257 257 260 262 264 266 268 268 267 266 266 267 268 269 270 271 271 271 270 269 268 267 267 268 270 272 273 275 276 277 278 279 280 280 280 280 280 280 280 280 279 279 279 279 278 277 276 274 271 268 264
235 236 237 237 239 240 243 245 247 249 250 251 251 251 250 249 249 249 249 249 249 249 250 250 251 255 259 260 257 256 259 262 262 260 256 252 253 257 260 263 265 266 267 266 265 265 265 266 266 267 267 267 266 265 263 262 261 262 264 266 268 270 272 273 274 276 277 278 279 279 279 279 279 278 278 278 278 278 278 279 279 279 279 277 275 270
242 243 243 243 243 244 246 247 249 250 250 249 248 246 244 244 244 245 246 246 246 247 248 249 249 251 255 257 256 254 255 258 258 257 254 248 249 254 258 261 263 264 264 263 263 263 263 263 263 263 263 262 261 259 257 256 256 258 259 262 264 266 269 271 272 273 274 275 276 277 278 277 277 276 276 275 274 275 275 275 276 278 279 280 280 276
245 246 246 246 246 246 246 248 249 248 246 244 242 240 240 240 240 241 241 243 243 244 245 246 247 246 246 249 251 252 252 254 256 255 251 245 246 251 257 259 261 262 261 261 261 261 260 260 259 259 258 257 255 253 252 251 251 253 255 258 261 264 266 268 270 271 272 272 273 274 274 274 274 274 274 273 271 271 270 271 271 272 274 277 279 278
246 247 247 247 246 245 245 246 245 242 240 237 236 236 237 238 238 238 239 240 241 242 244 244 244 244 244 246 249 251 252 253 255 254 250 244 244 249 255 257 258 258 257 258 258 257 256 255 255 254 252 251 248 247 246 247 247 249 252 255 258 261 263 266 268 269 270 271 272 272 272 272 272 272 271 271 269 268 267 267 267 268 269 271 274 275
245 245 246 246 244 242 241 241 239 238 237 235 235 236 237 237 237 237 238 238 238 239 239 240 242 244 245 244 248 253 254 254 255 254 251 245 243 248 254 255 256 255 254 254 254 253 252 251 250 249 247 244 243 242 242 243 244 246 248 251 254 257 260 263 266 268 270 271 272 272 272 272 271 271 270 269 268 267 265 265 265 266 266 267 268 269
242 242 244 244 243 240 237 236 237 237 236 236 236 237 239 239 238 238 238 237 237 238 239 242 244 245 246 245 248 253 256 256 255 255 253 246 241 245 254 255 255 254 252 250 249 249 248 247 246 244 241 240 239 239 239 240 240 242 244 247 250 253 257 261 265 268 270 272 273 274 273 273 272 271 270 268 267 266 265 264 264 264 265 265 265 265
239 239 241 242 242 240 237 237 238 238 239 239 240 241 242 242 242 242 241 240 241 241 241 242 244 244 244 245 247 251 255 256 256 254 254 248 244 245 251 254 255 254 251 249 247 247 247 246 244 242 239 238 237 238 237 237 237 238 240 243 246 250 255 260 264 268 270 272 274 274 274 273 273 272 271 269 268 266 265 264 264 264 264 264 263 263
241 241 242 243 243 242 241 241 241 241 242 243 244 246 247 248 248 247 247 246 246 244 244 245 245 244 242 244 246 249 254 256 256 256 256 254 250 247 250 253 253 251 248 248 248 248 249 249 247 244 240 238 238 238 237 237 236 237 239 243 248 253 258 263 266 269 271 273 274 275 275 275 274 273 272 271 270 268 266 264 263 263 263 263 263 261
247 246 245 245 246 246 245 245 244 244 245 246 248 250 253 254 254 253 253 252 251 251 251 252 250 247 245 246 247 249 254 258 259 259 260 261 258 253 251 251 250 248 244 247 250 252 253 254 253 249 244 242 241 240 239 238 238 240 245 252 258 265 269 272 274 275 276 276 277 277 277 277 276 276 274 273 272 270 268 266 264 263 262 262 262 261
250 248 247 247 247 247 246 246 246 246 248 250 252 254 257 257 258 258 257 256 256 256 256 255 253 251 251 250 249 251 256 261 263 265 266 267 265 260 255 251 248 246 243 245 250 254 255 256 256 254 249 246 245 242 241 241 243 248 256 264 272 277 280 281 282 283 282 282 282 281 280 280 279 278 277 275 274 272 270 268 266 264 262 261 261 261
248 246 244 243 243 243 244 245 246 247 249 251 254 256 258 258 258 258 257 257 258 258 257 257 256 254 252 249 249 253 258 261 264 267 269 270 268 265 260 254 250 246 245 246 251 255 256 257 257 255 251 248 244 242 241 243 247 255 263 271 277 281 284 285 286 287 287 286 286 284 283 282 281 280 278 277 276 274 272 271 269 267 264 263 262 261
243 241 239 238 237 238 239 242 244 247 249 251 252 253 254 256 255 255 256 258 259 259 259 259 258 257 254 251 249 251 254 256 261 265 268 269 268 266 263 258 253 250 249 249 252 256 258 257 255 252 247 242 238 236 237 242 249 256 263 271 276 280 282 285 286 287 287 287 287 286 285 284 282 281 280 279 277 276 274 273 271 269 267 265 264 262
238 237 237 236 236 237 239 240 243 246 249 251 252 252 252 253 253 254 256 258 259 259 260 260 260 259 258 254 250 247 249 252 258 263 265 265 265 265 265 261 258 255 254 254 257 260 260 256 250 243 237 234 231 231 235 242 249 255 262 267 272 276 279 282 284 285 286 287 286 286 285 284 283 282 281 280 278 277 275 274 272 271 269 267 266 264
237 238 240 240 242 242 244 244 246 248 250 253 256 256 255 254 254 255 257 259 261 262 263 263 262 262 261 257 253 250 249 252 257 260 261 262 263 264 265 264 262 259 256 255 258 263 263 254 244 236 231 229 230 233 238 245 251 256 261 265 269 273 276 279 281 283 284 285 286 286 285 284 284 283 281 280 279 277 276 274 273 272 270 269 267 266
243 246 248 250 251 252 253 252 253 253 254 256 259 261 261 259 259 259 261 263 265 267 267 267 266 265 264 262 259 255 253 255 257 259 258 260 263 264 266 265 264 262 257 253 253 256 258 252 244 237 232 231 234 240 245 250 254 258 262 265 270 273 275 277 279 281 282 283 284 284 284 284 283 282 281 280 279 277 275 274 273 272 271 270 269 268
246 248 250 253 254 256 257 258 258 259 260 261 264 267 269 269 269 268 269 269 270 270 270 270 270 269 267 265 263 260 257 257 258 259 259 260 262 264 265 264 264 262 259 254 252 252 252 251 249 244 240 239 242 247 252 256 259 261 264 268 271 273 275 276 278 279 280 281 282 282 282 281 281 281 280 279 278 276 274 273 272 272 271 271 271 269
238 240 242 244 246 249 252 254 256 257 259 261 264 268 271 273 273 273 273 273 273 273 273 274 273 273 271 270 267 263 258 257 258 260 260 261 262 263 264 263 262 261 260 257 254 253 253 253 253 251 248 245 246 249 253 257 259 262 265 267 270 272 274 275 276 277 279 279 279 279 278 278 278 278 278 278 277 275 274 273 272 272 272 272 272 271
234 236 237 239 239 239 240 242 243 245 248 250 254 259 262 266 268 270 271 272 274 275 276 276 276 275 275 274 271 265 259 258 261 263 264 263 263 265 265 264 262 261 260 258 257 257 257 257 256 256 254 249 244 244 248 251 254 257 261 264 267 269 272 273 275 276 277 277 277 276 275 275 275 276 276 276 275 275 274 273 272 272 272 273 273 273
244 245 244 244 244 243 242 240 239 240 241 243 246 250 253 257 261 264 267 270 273 276 277 277 277 276 275 275 273 268 263 264 266 269 269 268 267 267 266 265 264 263 261 261 261 261 262 262 261 259 258 254 247 242 242 245 248 251 255 260 265 269 272 273 275 275 276 275 274 273 272 272 273 273 274 274 274 274 274 273 273 272 272 272 272 273
259 258 256 254 254 254 254 252 249 249 248 249 249 250 253 255 258 262 265 268 270 272 274 274 274 274 273 273 272 271 269 269 271 273 273 272 270 269 267 267 266 265 263 263 264 264 265 265 265 264 263 260 255 251 246 243 243 246 251 258 265 270 273 275 276 276 276 274 272 270 269 269 270 271 272 273 273 273 273 273 273 272 272 272 272 272
266 264 262 262 262 262 262 260 258 256 256 255 255 255 256 257 259 260 262 262 264 265 267 268 269 270 271 272 272 271 271 271 273 274 275 274 272 271 270 269 269 267 266 265 265 266 267 267 268 267 264 262 259 257 255 249 244 243 245 253 262 269 273 276 277 277 276 274 271 269 268 268 269 270 270 271 272 272 273 273 273 272 271 271 271 271
264 264 264 263 264 264 262 260 258 258 259 258 258 257 257 257 257 257 258 258 259 260 261 262 264 266 267 269 271 272 272 273 274 275 276 275 274 273 272 271 271 270 269 267 265 266 266 267 268 268 267 266 264 261 259 256 252 249 247 250 258 268 272 274 276 276 275 273 270 269 268 267 267 267 267 268 269 271 272 272 272 272 270 270 269 270
260 262 262 263 262 260 259 257 258 259 260 259 259 258 257 256 255 255 255 255 255 256 258 259 260 262 264 266 268 270 271 272 272 273 274 274 274 274 273 272 272 271 270 268 266 265 265 266 267 268 268 269 268 265 261 260 260 259 257 256 260 267 270 272 273 274 273 270 269 268 267 267 266 266 266 266 268 269 270 271 271 271 271 270 270 270
258 261 263 264 263 261 259 259 259 258 257 256 256 256 255 254 254 254 254 254 254 254 254 256 258 259 261 263 265 267 268 269 269 270 270 271 272 272 272 272 272 271 271 269 267 265 265 266 266 267 268 269 268 266 264 264 265 267 268 268 271 272 271 270 270 270 269 268 266 265 265 265 265 265 266 266 266 267 268 269 270 272 273 274 273 272
263 265 268 269 268 266 265 263 261 258 256 255 254 253 253 253 253 253 253 254 254 256 257 258 260 261 262 264 265 266 266 266 266 267 267 268 269 270 270 271 271 271 270 269 268 266 265 264 265 266 268 269 269 268 267 267 268 271 275 277 278 278 278 273 269 267 265 263 262 262 261 262 263 264 265 266 265 266 267 268 270 272 274 275 276 275
274 276 279 280 279 278 277 273 269 265 262 259 257 256 256 256 256 256 256 255 256 257 259 261 263 265 267 269 269 269 266 265 264 265 265 266 267 268 269 270 270 270 270 269 269 267 265 264 263 264 266 266 267 268 269 270 272 275 278 281 282 283 284 275 269 264 260 258 257 258 259 260 261 263 263 263 263 264 266 268 269 271 272 274 276 277
284 286 288 288 289 289 287 283 279 276 273 269 266 265 264 263 262 261 261 261 260 260 261 263 266 268 270 273 273 271 269 267 266 265 265 266 267 268 269 270 270 270 270 269 269 268 267 264 263 262 262 264 265 267 270 273 276 279 281 282 283 282 278 270 264 261 257 255 254 255 256 258 259 260 260 260 261 262 265 267 269 271 272 274 276 277
288 290 291 291 292 292 290 288 286 284 282 280 277 275 273 272 271 270 269 268 267 266 266 267 269 271 272 275 274 270 268 267 267 267 266 266 267 268 268 269 269 270 270 269 268 267 266 265 263 262 261 262 264 267 270 275 279 282 283 284 283 280 276 269 262 256 252 251 251 252 254 256 257 257 257 257 258 261 263 266 268 270 273 275 277 278
285 287 287 289 290 290 289 289 288 288 286 285 283 280 278 278 278 278 277 276 275 274 273 273 273 274 275 276 275 270 266 263 263 263 264 265 266 267 267 267 268 268 268 268 267 266 264 263 263 262 262 263 264 266 270 276 280 283 284 284 282 280 277 269 260 252 248 247 248 250 253 254 255 254 253 254 255 258 260 262 264 266 269 272 274 276
279 280 282 284 286 287 287 287 287 286 285 284 283 280 279 279 279 280 280 280 279 278 278 277 277 277 277 278 278 276 272 265 260 258 258 259 262 263 265 265 266 266 266 266 266 265 264 263 263 262 263 264 265 267 271 275 279 282 283 282 281 279 276 267 258 252 248 246 246 248 251 253 253 253 253 253 253 254 256 258 260 262 264 266 269 271
276 278 280 282 284 286 286 287 286 286 285 283 281 278 276 276 277 277 278 279 278 278 278 278 279 279 279 281 282 282 280 275 268 262 258 256 258 260 262 263 263 264 264 264 264 264 264 264 264 263 264 265 267 269 273 276 279 280 280 280 279 277 272 262 254 250 248 246 246 248 249 250 251 252 253 254 253 252 252 253 256 258 260 263 264 266
276 279 281 283 285 286 287 288 288 288 287 285 282 279 276 276 276 276 277 277 278 277 278 279 279 281 281 283 283 284 283 281 278 272 265 259 257 258 260 261 262 263 262 263 263 264 264 264 264 265 265 267 269 272 275 277 278 278 277 277 276 274 267 256 250 248 247 246 247 248 249 250 251 253 255 256 256 255 253 252 253 256 258 260 262 264
277 279 281 283 285 286 287 288 288 288 288 287 285 282 279 278 278 278 279 279 279 278 279 280 280 282 283 283 283 283 282 281 279 276 271 265 260 257 258 259 260 261 262 262 262 263 264 264 264 265 267 268 271 273 275 276 276 275 274 273 272 268 261 251 246 245 246 246 248 249 251 252 254 256 257 259 260 260 259 256 254 255 257 259 261 263
276 277 278 280 282 283 284 285 286 287 287 287 285 284 281 279 278 278 279 279 279 280 280 281 282 282 283 283 282 281 280 279 278 276 273 268 264 260 259 259 259 260 260 261 261 262 263 263 264 265 267 269 271 272 272 272 272 272 270 269 267 263 258 250 246 245 246 247 249 251 253 254 256 258 260 262 265 265 265 262 259 258 259 261 263 265